Location: Bruderhein
(53.8035°N, 112.9265°W)
Time: 08:42:10
(UTC+00:00)

FENGYUN 1C DEB - Visible Passes

Search period start: 06 December 2023 00:00
Search period end: 16 December 2023 00:00
Orbit: 808 x 854 km, 98.8° (Epoch: 04 December)

Date Brightness Start Highest point End Pass type
(mag) Time Alt. Az. Time Alt. Az. Time Alt. Az.
07 Dec ? 03:16:40 10° N 03:16:40 10° N 03:16:44 10° N visible
08 Dec ? 02:58:51 11° N 02:58:51 11° N 02:58:59 10° N visible
09 Dec ? 02:41:02 11° N 02:41:02 11° N 02:41:11 10° N visible
10 Dec ? 02:23:12 10° N 02:23:12 10° N 02:23:19 10° N visible
11 Dec ? 02:05:22 10° N 02:05:22 10° N 02:05:22 10° N visible
13 Dec ? 03:11:15 10° N 03:11:15 10° N 03:11:15 10° N visible
14 Dec ? 02:53:23 10° N 02:53:23 10° N 02:53:27 10° N visible
15 Dec ? 02:35:31 10° N 02:35:31 10° N 02:35:37 10° N visible
